| time (UTC) | temp F | wind direction | speed knots | gust knots | rain 1hr in | rain 24hr in | rain mn in | humidity % | barometer mb |
| 20260901131510 | 80 | 262 | 0.0 | 1.7 | 0.00 | 0.00 | 0.00 | 87 | 1016.9 |
| 20260901130049 | 79 | 267 | 0.0 | 2.6 | 0.00 | 0.00 | 0.00 | 90 | 1017.1 |
| 20260901124602 | 78 | 210 | 0.0 | 0.9 | 0.00 | 0.00 | 0.00 | 92 | 1017.3 |
| 20260901123023 | 77 | 262 | 0.0 | 0.9 | 0.00 | 0.00 | 0.00 | 94 | 1017.3 |
| 20260901121547 | 76 | 236 | 0.0 | 0.9 | 0.00 | 0.00 | 0.00 | 94 | 1017.3 |
| 20260901120031 | 75 | 214 | 0.0 | 0.9 | 0.00 | 0.00 | 0.00 | 95 | 1017.2 |
| 20260901114515 | 75 | 225 | 0.0 | 0.0 | 0.00 | 0.00 | 0.00 | 95 | 1016.8 |
| 20260901113005 | 74 | 225 | 0.0 | 0.0 | 0.00 | 0.00 | 0.00 | 95 | 1017.3 |
| 20260901111535 | 74 | 224 | 0.0 | 0.0 | 0.00 | 0.00 | 0.00 | 95 | 1017.4 |
| 20260901110008 | 74 | 224 | 0.0 | 0.0 | 0.00 | 0.00 | 0.00 | 95 | 1017.1 |
| 20260901104552 | 74 | 224 | 0.0 | 0.0 | 0.00 | 0.00 | 0.00 | 95 | 1017.0 |
| 20260901103037 | 74 | 224 | 0.0 | 0.0 | 0.00 | 0.00 | 0.00 | 95 | 1016.7 |
| 20260901101532 | 74 | 224 | 0.0 | 0.0 | 0.00 | 0.00 | 0.00 | 95 | 1016.6 |
| 20260901094550 | 74 | 224 | 0.0 | 0.0 | 0.00 | 0.00 | 0.00 | 95 | 1017.0 |
| 20260901093047 | 74 | 131 | 0.0 | 0.0 | 0.00 | 0.00 | 0.00 | 95 | 1017.0 |
| 20260901091504 | 74 | 131 | 0.0 | 0.0 | 0.00 | 0.00 | 0.00 | 95 | 1017.1 |
| 20260901090051 | 74 | 131 | 0.0 | 0.0 | 0.00 | 0.00 | 0.00 | 95 | 1016.9 |
| 20260901084524 | 74 | 131 | 0.0 | 0.0 | 0.00 | 0.00 | 0.00 | 95 | 1017.1 |
| 20260901083104 | 74 | 131 | 0.0 | 0.0 | 0.00 | 0.00 | 0.00 | 95 | 1017.1 |
| 20260901081518 | 74 | 131 | 0.0 | 0.0 | 0.00 | 0.00 | 0.00 | 95 | 1017.2 |
| 20260901080049 | 73 | 131 | 0.0 | 0.0 | 0.00 | 0.00 | 0.00 | 95 | 1017.3 |
| 20260901074518 | 73 | 131 | 0.0 | 0.0 | 0.00 | 0.01 | 0.00 | 95 | 1017.2 |
| 20260901073048 | 73 | 131 | 0.0 | 0.0 | 0.00 | 0.01 | 0.00 | 95 | 1017.3 |
| 20260901071537 | 73 | 131 | 0.0 | 0.0 | 0.00 | 0.01 | 0.00 | 95 | 1017.5 |
| 20260901070100 | 73 | 131 | 0.0 | 0.0 | 0.00 | 0.01 | 0.00 | 95 | 1017.4 |
| 20260901064505 | 73 | 131 | 0.0 | 0.0 | 0.00 | 1.22 | 0.00 | 95 | 1017.5 |
| 20260901063003 | 73 | 131 | 0.0 | 0.0 | 0.00 | 1.22 | 0.00 | 95 | 1017.8 |
| 20260901061513 | 73 | 131 | 0.0 | 0.0 | 0.00 | 1.22 | 0.00 | 95 | 1017.8 |
| 20260901060100 | 72 | 131 | 0.0 | 0.0 | 0.00 | 1.22 | 0.00 | 94 | 1017.8 |
| 20260901054551 | 72 | 131 | 0.0 | 0.0 | 0.00 | 1.32 | 0.00 | 94 | 1018.2 |
| 20260901053019 | 72 | 131 | 0.0 | 0.0 | 0.00 | 1.32 | 0.00 | 94 | 1018.5 |
| 20260901051600 | 72 | 131 | 0.0 | 0.0 | 0.00 | 1.32 | 0.00 | 94 | 1018.5 |
| 20260901050039 | 72 | 131 | 0.0 | 0.0 | 0.00 | 1.32 | 0.00 | 93 | 1018.5 |
| 20260901044509 | 73 | 131 | 0.0 | 0.0 | 0.00 | 1.32 | 0.00 | 93 | 1018.6 |
| 20260901043107 | 73 | 131 | 0.0 | 0.0 | 0.00 | 1.32 | 0.00 | 93 | 1018.6 |
| 20260901041531 | 73 | 131 | 0.0 | 0.0 | 0.00 | 1.32 | 0.00 | 93 | 1018.6 |
| 20260901040108 | 73 | 131 | 0.0 | 0.0 | 0.00 | 1.32 | 0.00 | 93 | 1018.6 |
| 20260901034502 | 73 | 131 | 0.0 | 0.0 | 0.00 | 1.32 | 1.32 | 92 | 1018.4 |
| 20260901033023 | 73 | 131 | 0.0 | 0.0 | 0.00 | 1.32 | 1.32 | 92 | 1018.3 |
| 20260901031625 | 73 | 131 | 0.0 | 0.0 | 0.00 | 1.32 | 1.32 | 91 | 1018.6 |
| 20260901030045 | 74 | 131 | 0.0 | 0.0 | 0.00 | 1.32 | 1.32 | 90 | 1018.6 |
| 20260901024551 | 74 | 131 | 0.0 | 0.0 | 0.00 | 1.32 | 1.32 | 90 | 1018.7 |
| 20260901023019 | 74 | 132 | 0.0 | 0.0 | 0.00 | 1.32 | 1.32 | 89 | 1018.9 |
| 20260901021545 | 75 | 129 | 0.0 | 0.9 | 0.00 | 1.32 | 1.32 | 89 | 1018.9 |
| 20260901020029 | 74 | 212 | 0.0 | 0.0 | 0.00 | 1.32 | 1.32 | 89 | 1019.0 |
| 20260901014559 | 74 | 209 | 0.0 | 0.0 | 0.00 | 1.32 | 1.32 | 89 | 1019.1 |
| 20260901013039 | 74 | 240 | 0.0 | 0.0 | 0.00 | 1.32 | 1.32 | 89 | 1019.0 |
| 20260901011519 | 74 | 222 | 0.0 | 0.0 | 0.00 | 1.32 | 1.32 | 88 | 1019.0 |
| 20260901010036 | 74 | 246 | 0.0 | 0.0 | 0.00 | 1.32 | 1.32 | 88 | 1018.8 |
| 20260901004515 | 74 | 245 | 0.0 | 0.0 | 0.00 | 1.32 | 1.32 | 88 | 1018.8 |
| 20260901003015 | 74 | 251 | 0.0 | 0.0 | 0.00 | 1.32 | 1.32 | 87 | 1018.8 |
| 20260901001548 | 74 | 251 | 0.0 | 0.9 | 0.00 | 1.32 | 1.32 | 87 | 1018.7 |
| 20260901000100 | 74 | 191 | 0.0 | 0.0 | 0.00 | 1.32 | 1.32 | 86 | 1018.6 |
| 20260831234542 | 74 | 151 | 0.0 | 0.0 | 0.00 | 1.32 | 1.32 | 85 | 1018.8 |
| 20260831233016 | 74 | 151 | 0.0 | 0.0 | 0.00 | 1.32 | 1.32 | 85 | 1019.0 |
| 20260831231508 | 74 | 151 | 0.0 | 0.0 | 0.00 | 1.32 | 1.32 | 84 | 1019.1 |
| 20260831230105 | 74 | 151 | 0.0 | 0.0 | 0.00 | 1.32 | 1.32 | 83 | 1019.1 |
| 20260831224554 | 75 | 151 | 0.0 | 0.0 | 0.00 | 1.32 | 1.32 | 82 | 1019.3 |
| 20260831223036 | 75 | 151 | 0.0 | 0.0 | 0.00 | 1.32 | 1.32 | 81 | 1019.4 |
| 20260831221524 | 75 | 151 | 0.0 | 0.0 | 0.00 | 1.32 | 1.32 | 80 | 1019.5 |
| 20260831220010 | 76 | 151 | 0.0 | 0.9 | 0.00 | 1.32 | 1.32 | 80 | 1019.5 |
| 20260831214600 | 76 | 69 | 0.0 | 0.9 | 0.00 | 1.32 | 1.32 | 81 | 1019.4 |
| 20260831213051 | 75 | 158 | 0.0 | 0.0 | 0.00 | 1.32 | 1.32 | 81 | 1019.3 |
| 20260831211537 | 75 | 344 | 0.0 | 1.7 | 0.00 | 1.32 | 1.32 | 81 | 1019.1 |
| 20260831210027 | 76 | 32 | 0.0 | 1.7 | 0.00 | 1.32 | 1.32 | 81 | 1019.4 |
| 20260831204531 | 76 | 82 | 0.0 | 1.7 | 0.00 | 1.32 | 1.32 | 79 | 1019.7 |
| 20260831203023 | 77 | 128 | 0.0 | 0.9 | 0.00 | 1.32 | 1.32 | 79 | 1019.4 |
| 20260831201501 | 76 | 142 | 0.0 | 0.9 | 0.00 | 1.32 | 1.32 | 79 | 1019.5 |
| 20260831200005 | 77 | 10 | 0.0 | 0.0 | 0.00 | 1.32 | 1.32 | 79 | 1019.7 |
| 20260831194607 | 77 | 43 | 0.0 | 0.0 | 0.00 | 1.32 | 1.32 | 79 | 1019.8 |
| 20260831193044 | 77 | 159 | 0.0 | 0.0 | 0.00 | 1.32 | 1.32 | 78 | 1019.9 |
| 20260831191554 | 78 | 134 | 0.0 | 0.0 | 0.00 | 1.32 | 1.32 | 78 | 1019.9 |
| 20260831190017 | 78 | 188 | 0.0 | 0.0 | 0.00 | 1.32 | 1.32 | 76 | 1019.9 |
| 20260831184517 | 78 | 86 | 0.0 | 0.9 | 0.00 | 1.32 | 1.32 | 76 | 1019.9 |
| 20260831183050 | 80 | 217 | 0.0 | 1.7 | 0.00 | 1.32 | 1.32 | 75 | 1019.9 |
| 20260831181553 | 80 | 98 | 0.0 | 1.7 | 0.00 | 1.32 | 1.32 | 76 | 1020.0 |
| 20260831180028 | 80 | 34 | 0.0 | 1.7 | 0.00 | 1.32 | 1.32 | 75 | 1020.0 |
| 20260831174604 | 80 | 120 | 0.0 | 0.9 | 0.00 | 1.32 | 1.32 | 74 | 1020.1 |
| 20260831173121 | 80 | 121 | 0.0 | 1.7 | 0.00 | 1.32 | 1.32 | 73 | 1020.3 |
| 20260831171508 | 80 | 314 | 0.0 | 2.6 | 0.00 | 1.32 | 1.32 | 73 | 1020.3 |
| 20260831170025 | 80 | 117 | 0.0 | 0.9 | 0.00 | 1.32 | 1.32 | 73 | 1020.1 |
| 20260831164602 | 81 | 139 | 0.0 | 4.3 | 0.00 | 1.32 | 1.32 | 74 | 1020.1 |
| 20260831163058 | 79 | 37 | 0.0 | 2.6 | 0.00 | 1.32 | 1.32 | 77 | 1020.3 |
| 20260831161521 | 79 | 346 | 0.9 | 2.6 | 0.00 | 1.32 | 1.32 | 74 | 1020.3 |
| 20260831160057 | 79 | 77 | 0.0 | 3.5 | 0.00 | 1.32 | 1.32 | 77 | 1020.4 |
| 20260831154519 | 80 | 127 | 0.0 | 0.9 | 0.00 | 1.32 | 1.32 | 79 | 1020.3 |
| 20260831153051 | 79 | 111 | 0.0 | 0.9 | 0.00 | 1.32 | 1.32 | 80 | 1020.3 |
| 20260831151535 | 78 | 124 | 0.0 | 1.7 | 0.00 | 1.32 | 1.32 | 81 | 1020.5 |
| 20260831150107 | 77 | 330 | 0.0 | 2.6 | 0.00 | 1.32 | 1.32 | 84 | 1020.5 |
| 20260831144531 | 75 | 326 | 0.0 | 3.5 | 0.00 | 1.32 | 1.32 | 84 | 1020.5 |
| 20260831143041 | 75 | 151 | 0.0 | 0.9 | 0.00 | 1.32 | 1.32 | 87 | 1020.4 |
| 20260831141517 | 74 | 13 | 0.0 | 2.6 | 0.00 | 1.32 | 1.32 | 89 | 1020.7 |
| 20260831140101 | 73 | 6 | 0.0 | 0.9 | 0.00 | 1.32 | 1.32 | 89 | 1020.6 |
| 20260831134522 | 72 | 99 | 0.0 | 0.0 | 0.00 | 1.32 | 1.32 | 92 | 1020.5 |
| 20260831133059 | 71 | 124 | 0.0 | 0.0 | 0.00 | 1.32 | 1.32 | 91 | 1020.6 |